Cody, WY

10:57 PM MST on February 24, 2017 (GMT -0700)
Yellowstone Regional

Weather History for KCOD - April, 2014

Change the Weather History Date:

Tuesday, April 29, 2014

  Actual Average Record
Temperature  
Mean Temperature 41 °F -  
Max Temperature 50 °F 58 °F 87 °F (1939)
Min Temperature 32 °F 35 °F 18 °F (1954)
Degree Days  
Heating Degree Days 24    
Moisture  
Dew Point 22 °F    
Average Humidity 49    
Maximum Humidity 75    
Minimum Humidity 34    
Precipitation  
Precipitation 0.00 in - - ()
Sea Level Pressure  
Sea Level Pressure 30.37 in    
Wind  
Wind Speed 8 mph (NNW)    
Max Wind Speed 30 mph    
Max Gust Speed 43 mph    
Visibility 10 miles    
Events      
Averages and records for this station are not official NWS values.
T = Trace of Precipitation, MM = Missing Value Source: NWS Daily Summary

Daily Weather History Graph

Daily Weather History Graph

Search for Another Location

Airport or City:

Trip Planner

Search our weather history database for the weather conditions in past years. The results will help you decide how hot, cold, wet, or windy it might be!

Date:

Astronomy

Apr. 29, 2014 Rise Set
Actual Time 6:09 AM MDT 8:18 PM MDT
Civil Twilight 5:37 AM MDT 8:50 PM MDT
Nautical Twilight 4:58 AM MDT 9:29 PM MDT
Astronomical Twilight 4:15 AM MDT 10:13 PM MDT
Moon 6:30 AM MDT (4/29) 9:02 PM MDT (4/29)
Length of Visible Light 15h 12m
Length of Day
14h 08m
New Moon, 0% of the Moon is Illuminated
Apr 29
New Moon
May 6
First Quarter
May 14
Full
May 21
Last Quarter
May 28
New

Hourly Weather History & Observations

Time (MDT) Temp. Windchill Dew Point Humidity Pressure Visibility Wind Dir Wind Speed Gust Speed Precip Events Conditions
12:15 AM 39.2 °F - 19.4 °F 45% 30.23 in 10.0 mi Calm Calm - N/A   Overcast
12:35 AM 39.2 °F - 21.2 °F 49% 30.23 in 10.0 mi Calm Calm - N/A   Mostly Cloudy
12:55 AM 39.2 °F - 19.4 °F 45% 30.24 in 10.0 mi Calm Calm - N/A   Mostly Cloudy
1:15 AM 37.4 °F - 19.4 °F 48% 30.24 in 10.0 mi Calm Calm - N/A   Scattered Clouds
1:35 AM 37.4 °F - 19.4 °F 48% 30.24 in 10.0 mi Calm Calm - N/A   Mostly Cloudy
1:55 AM 37.4 °F - 19.4 °F 48% 30.25 in 10.0 mi Calm Calm - N/A   Overcast
2:15 AM 35.6 °F - 23.0 °F 60% 30.26 in 10.0 mi Calm Calm - N/A   Overcast
2:35 AM 35.6 °F - 19.4 °F 52% 30.27 in - Calm Calm - N/A   Overcast
2:55 AM 35.6 °F - 21.2 °F 56% 30.27 in 10.0 mi Calm Calm - N/A   Mostly Cloudy
3:15 AM 35.6 °F 31.7 °F 21.2 °F 56% 30.28 in 10.0 mi WSW 4.6 mph - N/A   Clear
3:35 AM 35.6 °F 32.8 °F 21.2 °F 56% 30.28 in 10.0 mi West 3.5 mph - N/A   Partly Cloudy
3:55 AM 33.8 °F - 21.2 °F 60% 30.28 in 10.0 mi Calm Calm - N/A   Mostly Cloudy
4:15 AM 35.6 °F 32.8 °F 19.4 °F 52% 30.29 in 10.0 mi West 3.5 mph - N/A   Scattered Clouds
4:35 AM 33.8 °F - 19.4 °F 56% 30.29 in - Calm Calm - N/A   Partly Cloudy
4:55 AM 33.8 °F - 19.4 °F 56% 30.30 in - Calm Calm - N/A   Scattered Clouds
5:15 AM 35.6 °F - 21.2 °F 56% 30.31 in 10.0 mi Calm Calm - N/A   Scattered Clouds
5:35 AM 33.8 °F 30.8 °F 19.4 °F 56% 30.32 in 10.0 mi West 3.5 mph - N/A   Clear
5:55 AM 33.8 °F 29.6 °F 19.4 °F 56% 30.32 in 10.0 mi West 4.6 mph - N/A   Clear
6:15 AM 32.0 °F - 19.4 °F 60% 30.33 in 10.0 mi Calm Calm - N/A   Clear
6:35 AM 33.8 °F 30.8 °F 17.6 °F 52% 30.33 in - WNW 3.5 mph - N/A   Clear
6:55 AM 33.8 °F 29.6 °F 19.4 °F 56% 30.33 in 10.0 mi West 4.6 mph - N/A   Clear
7:15 AM 35.6 °F 32.8 °F 19.4 °F 52% 30.34 in 10.0 mi WNW 3.5 mph - N/A   Clear
7:35 AM 37.4 °F 32.8 °F 19.4 °F 48% 30.34 in 10.0 mi WNW 5.8 mph - N/A   Clear
7:55 AM 39.2 °F 35.9 °F 19.4 °F 45% 30.35 in 10.0 mi West 4.6 mph - N/A   Clear
8:15 AM 39.2 °F 35.0 °F 17.6 °F 42% 30.36 in 10.0 mi NNW 5.8 mph - N/A   Mostly Cloudy
8:35 AM 37.4 °F 31.4 °F 21.2 °F 52% 30.36 in 10.0 mi NE 8.1 mph - N/A   Overcast
8:55 AM 39.2 °F 34.2 °F 21.2 °F 49% 30.37 in 10.0 mi NNE 6.9 mph - N/A   Overcast
9:15 AM 39.2 °F 34.2 °F 19.4 °F 45% 30.38 in 10.0 mi North 6.9 mph - N/A   Overcast
9:35 AM 39.2 °F 35.0 °F 17.6 °F 42% 30.38 in 10.0 mi North 5.8 mph - N/A   Overcast
9:55 AM 41.0 °F 35.8 °F 19.4 °F 42% 30.39 in 10.0 mi North 8.1 mph - N/A   Overcast
10:15 AM 41.0 °F 35.2 °F 15.8 °F 36% 30.39 in 10.0 mi NNW 9.2 mph - N/A   Overcast
10:35 AM 42.8 °F 36.2 °F 17.6 °F 36% 30.39 in 10.0 mi North 12.7 mph - N/A   Overcast
10:55 AM 42.8 °F 34.5 °F 21.2 °F 42% 30.39 in 10.0 mi NNW 18.4 mph 25.3 mph N/A   Overcast
11:15 AM 42.8 °F 32.7 °F 23.0 °F 46% 30.40 in 10.0 mi North 27.6 mph 36.8 mph N/A   Overcast
11:35 AM 44.6 °F 35.7 °F 24.8 °F 46% 30.40 in 10.0 mi North 24.2 mph 33.4 mph N/A   Overcast
11:55 AM 44.6 °F 35.7 °F 23.0 °F 43% 30.40 in 10.0 mi North 24.2 mph 29.9 mph N/A   Overcast
12:15 PM 44.6 °F 36.4 °F 21.2 °F 39% 30.40 in 10.0 mi North 20.7 mph 35.7 mph N/A   Overcast
12:35 PM 46.4 °F 38.7 °F 21.2 °F 37% 30.40 in 10.0 mi North 20.7 mph 31.1 mph N/A   Overcast
12:55 PM 46.4 °F 37.7 °F 23.0 °F 40% 30.40 in 10.0 mi North 26.5 mph 34.5 mph N/A   Overcast
1:15 PM 46.4 °F 38.5 °F 23.0 °F 40% 30.40 in 10.0 mi North 21.9 mph 36.8 mph N/A   Overcast
1:35 PM 48.2 °F - 24.8 °F 40% 30.40 in 10.0 mi North 19.6 mph 36.8 mph N/A   Mostly Cloudy
1:55 PM 48.2 °F - 24.8 °F 40% 30.40 in 10.0 mi North 27.6 mph 34.5 mph N/A   Mostly Cloudy
2:15 PM 48.2 °F - 23.0 °F 37% 30.40 in 10.0 mi North 28.8 mph 36.8 mph N/A   Scattered Clouds
2:35 PM 48.2 °F - 24.8 °F 40% 30.40 in 10.0 mi North 24.2 mph 33.4 mph N/A   Scattered Clouds
3:15 PM 50.0 °F - 23.0 °F 35% 30.40 in 10.0 mi North 20.7 mph 35.7 mph N/A   Mostly Cloudy
3:35 PM 48.2 °F - 21.2 °F 34% 30.40 in 10.0 mi North 29.9 mph 42.6 mph N/A   Mostly Cloudy
3:55 PM 48.2 °F - 23.0 °F 37% 30.40 in 10.0 mi NNW 23.0 mph 32.2 mph N/A   Overcast
4:15 PM 46.4 °F 38.3 °F 21.2 °F 37% 30.40 in 10.0 mi North 23.0 mph 34.5 mph N/A   Overcast
4:35 PM 46.4 °F 38.5 °F 23.0 °F 40% 30.41 in 10.0 mi NNW 21.9 mph 34.5 mph N/A   Overcast
4:55 PM 46.4 °F 38.5 °F 23.0 °F 40% 30.41 in 10.0 mi NNW 21.9 mph 34.5 mph N/A   Mostly Cloudy
5:15 PM 46.4 °F 38.5 °F 21.2 °F 37% 30.41 in 10.0 mi North 21.9 mph 31.1 mph N/A   Overcast
5:35 PM 46.4 °F 39.0 °F 21.2 °F 37% 30.41 in 10.0 mi North 19.6 mph 27.6 mph N/A   Mostly Cloudy
5:55 PM 46.4 °F 40.1 °F 21.2 °F 37% 30.42 in 10.0 mi NNW 15.0 mph 35.7 mph N/A   Overcast
6:15 PM 46.4 °F 39.0 °F 21.2 °F 37% 30.42 in 10.0 mi NNW 19.6 mph 29.9 mph N/A   Overcast
6:35 PM 46.4 °F 38.1 °F 19.4 °F 34% 30.41 in 10.0 mi NNW 24.2 mph 31.1 mph N/A   Mostly Cloudy
6:55 PM 44.6 °F 37.2 °F 21.2 °F 39% 30.42 in 10.0 mi North 17.3 mph 35.7 mph N/A   Overcast
7:15 PM 42.8 °F 35.1 °F 24.8 °F 49% 30.43 in 10.0 mi North 16.1 mph 36.8 mph N/A   Overcast
7:35 PM 44.6 °F 38.1 °F 24.8 °F 46% 30.43 in 10.0 mi North 13.8 mph - N/A   Overcast
7:55 PM 42.8 °F 36.2 °F 26.6 °F 53% 30.43 in 10.0 mi North 12.7 mph - N/A   Overcast
8:15 PM 42.8 °F 36.2 °F 26.6 °F 53% 30.44 in 10.0 mi North 12.7 mph - N/A   Overcast
8:35 PM 42.8 °F 34.8 °F 26.6 °F 53% 30.44 in 10.0 mi North 17.3 mph - N/A   Overcast
8:55 PM 41.0 °F 32.5 °F 26.6 °F 57% 30.45 in 10.0 mi North 17.3 mph 23.0 mph N/A   Overcast
9:15 PM 39.2 °F 31.6 °F 30.2 °F 70% 30.46 in 10.0 mi NNE 12.7 mph - N/A   Partly Cloudy
9:35 PM 37.4 °F 30.3 °F 30.2 °F 75% 30.47 in 10.0 mi North 10.4 mph - N/A   Mostly Cloudy
9:55 PM 37.4 °F 32.1 °F 30.2 °F 75% 30.47 in 10.0 mi NW 6.9 mph - N/A   Overcast
10:15 PM 39.2 °F 33.6 °F 30.2 °F 70% 30.47 in 10.0 mi NNW 8.1 mph - N/A   Mostly Cloudy
10:35 PM 39.2 °F 33.6 °F 28.4 °F 65% 30.47 in 10.0 mi NW 8.1 mph - N/A   Overcast
10:55 PM 39.2 °F 33.6 °F 30.2 °F 70% 30.47 in 10.0 mi NW 8.1 mph - N/A   Mostly Cloudy
11:15 PM 39.2 °F 33.6 °F 30.2 °F 70% 30.47 in 10.0 mi NW 8.1 mph - N/A   Overcast
11:35 PM 39.2 °F 34.2 °F 30.2 °F 70% 30.47 in 10.0 mi NW 6.9 mph - N/A   Overcast
11:55 PM 39.2 °F 33.6 °F 30.2 °F 70% 30.48 in 10.0 mi NW 8.1 mph - N/A   Overcast